Regional Weather Roundup
Issued by NWS Newport/Morehead, NC

Current Version | Previous Version | Text Only | Print | Product List | Glossary On
Versions: 1 2 3 4 5 6 7 8 9 10 11 12 13 14 15 16 17 18 19 20 21 22 23 24 25 26 27 28 29 30 31 32 33 34 35 36 37 38 39 40 41 42 43 44 45 46 47 48 49 50
000 ASUS42 KMHX 201022 RWRMHX WEATHER ROUNDUP FOR EASTERN NORTH CAROLINA NATIONAL WEATHER SERVICE NEWPORT/MOREHEAD CITY NC 500 AM EST SAT DEC 20 2014 NOTE: "FAIR" INDICATES FEW OR NO CLOUDS BELOW 12,000 FEET WITH NO SIGNIFICANT WEATHER AND/OR OBSTRUCTIONS TO VISIBILITY NCZ015>017-031-032-045>047-102-103-201100- NORTH COAST CITY SKY/WX TMP DP RH WIND PRES REMARKS EDENTON N/A 33 29 86 N3 30.25S ELIZABETH CITY MOCLDY 38 29 70 N7 30.25F KITTY HAWK CLOUDY 40 32 74 NW3 30.22F MANTEO CLOUDY 40 32 74 N5 30.24S $$ NCZ045>047-081-094-103-104-201100- CENTRAL COAST CITY SKY/WX TMP DP RH WIND PRES REMARKS FRISCO CLOUDY 42 34 73 VRB6 30.23S SWANQUARTER N/A 37 N/A N/A CALM 30.21R $$ NCZ095-097-098-100-101-201100- SOUTHERN COAST CITY SKY/WX TMP DP RH WIND PRES REMARKS BEAUFORT CLOUDY 42 36 79 NE5 30.23S CEDAR ISLAND N/A 45 N/A N/A NE9 30.27S JACKSONVILLE CLOUDY 42 35 76 E6 30.23R PINEY ISLAND CLOUDY 46 36 68 NE9 30.22S WILMINGTON CLOUDY 43 38 82 NE7 30.20S $$ NCZ011>013-027>030-043-044-078>080-089-090>093-098-201100- COASTAL PLAIN CITY SKY/WX TMP DP RH WIND PRES REMARKS AHOSKIE CLOUDY 31 26 84 N3 30.25F CLINTON CLOUDY 40 34 77 CALM 30.23R ELIZABETHTOWN CLOUDY 41 33 73 CALM 30.21S GOLDSBORO CLOUDY 37 37 97 NE1 30.23R GREENVILLE CLOUDY 36 32 87 CALM 30.26R HAVELOCK CLOUDY 40 36 86 CALM 30.24R KENANSVILLE CLOUDY 37 33 87 CALM 30.24S KINSTON CLOUDY 37 34 90 N3 30.24S NEW BERN CLOUDY 41 34 76 E5 30.24S RICHLANDS CLOUDY 37 32 81 N3 30.24R ROCKY MOUNT CLOUDY 35 28 75 NE3 30.26R WASHINGTON CLOUDY 34 31 90 CALM 30.24S WHITEVILLE DRIZZLE 42 36 79 NE5 30.19F $$ AMZ130-135-150-152-154-156-158-170-250-252-270-ANZ085-086-088-633-658-670-201100- MARINE OBSERVATIONS STATION/POSITION TIME TEMP WIND PRES WAVE SWELL AIR SEA DIR/SP/G HT/PER HT/PER (UTC) (F) (DEG/KT/KT) (MB) (FT/S) (FT/S) CHESAPEAKE LIGHT 1000 39 10/ 12/ 13 1024.4 64 E VA BEACH 1000 43 54 350/ 10/ 14 1022.8 3/ 5 2/ 5 DUCK 1000 40 46 330/ 10/ 13 1022.9 2 E DUCK 1000 47 N/A 3/ 5 10 NE DUCK 1000 52 N/A 3/ 5 OREGON INLET 1000 40 50 340/ 4/ 5 1023.6 13E OREGON INLT 1000 52 N/A 3/ 6 HATTERAS CG 1000 44 51 40/ 5/ 7 1023.7 DIAMOND BUOY 1000 46 1023.3 3/ 7 17 S OCRACOKE NOT AVBL CAPE LOOKOUT 1000 45 20/ 9/ 10 1022.9 BEAUFORT LAB 1000 43 52 30/ 4/ 6 1022.4 30 SE NEW RIVER 1000 52 61 50/ 10/ 12 1023.0 2/ 3 2/10 5 SE WRIGHTSVLE NOT AVBL 225 S CAPE HAT 0940 65 72 40/ 8/ 12 1020.7 2/ 7 2/ 7 41 SE CHARLESTON 1000 64 69 60/ 17/ 19 1018.5 3/ 4 2/11 $$

USA.gov is the U.S. government's official web portal to all federal, state and local government web resources and services.